x

Portage Canal, Mi (pclm4) Weather Station

12:40am - Sun 31st Jul 2016 All times are CDT. -5 hours from GMT.

  • Wind
    5mph, 15mph gusts
  • Air Temp 66°f
  • Sea Pressure 1017.9mb
  • Portage Canal, Mi
  • Portage Canal, Mi

More Historic Weather Station data

Upgrade to MSW Pro to gain access to the past 30 days of data for over 8000 Wavebouys and Weather Stations around the globe.

Join Pro

Comparision Forecast

View Surf forecast
   
Sun 07/31 12:40am 5 15 mph 1017.9mb 66f
12:30am 5 11 mph 1017.9mb 66f
12:20am 7 13 mph 1017.9mb 66f
12:10am 6 11 mph 1017.9mb 66f
12:00am 7 11 mph 1017.9mb 66f
Sat 07/30 11:40pm 7 14 mph 1017.9mb 67f
11:30pm 6 15 mph 1017.9mb 67f
11:20pm 7 15 mph 1017.9mb 67f
11:10pm 7 13 mph 1017.9mb 67f
11:00pm 7 13 mph 1017.9mb 67f
10:40pm 7 16 mph 1017.9mb 67f
10:30pm 6 13 mph 1017.6mb 67f
10:20pm 7 14 mph 1017.6mb 67f
10:10pm 5 13 mph 1017.6mb 67f
10:00pm 8 13 mph 1017.6mb 67f
9:40pm 6 11 mph 1017.9mb 67f
9:30pm 6 11 mph 1017.9mb 67f
9:20pm 6 13 mph 1017.6mb 67f
9:10pm 5 13 mph 1017.6mb 67f
9:00pm 6 15 mph 1017.6mb 67f
8:40pm 5 10 mph 1017.3mb 68f
8:30pm 6 11 mph 1017.3mb 68f
8:20pm 7 13 mph 1017.3mb 69f
8:10pm 5 10 mph 1017.3mb 69f
8:00pm 2 9 mph 1017.3mb 70f
7:40pm 3 11 mph 1017.3mb 71f
7:30pm 5 9 mph 1017.3mb 72f
7:20pm 5 9 mph 1017.6mb 73f
7:10pm 5 7 mph 1017.6mb 74f
7:00pm 3 9 mph 1017.6mb 75f
6:30pm 3 5 mph 1017.6mb 76f
6:20pm 1 6 mph 1017.6mb 75f
6:10pm 2 6 mph 1017.6mb 73f
6:00pm 3 7 mph 1017.9mb 71f
5:40pm 5 6 mph 1017.9mb 71f
5:30pm 6 7 mph 1017.9mb 71f
5:20pm 5 8 mph 1017.9mb 72f
5:10pm 5 8 mph 1017.9mb 72f
5:00pm 5 7 mph 1017.9mb 73f
4:40pm 5 8 mph 1017.9mb 73f
4:30pm 6 8 mph 1018.3mb 73f
4:20pm 6 8 mph 1018.3mb 73f
4:10pm 6 9 mph 1018.3mb 73f
4:00pm 6 9 mph 1018.3mb 72f
3:40pm 7 10 mph 1018.3mb 73f
3:30pm 6 9 mph 1018.3mb 73f
3:20pm 6 9 mph 1018.6mb 73f
3:10pm 6 9 mph 1018.6mb 73f
3:00pm 6 9 mph 1018.6mb 73f
2:40pm 6 8 mph 1018.3mb 73f
2:30pm 5 9 mph 1018.3mb 73f
2:20pm 5 9 mph 1018.6mb 73f
2:10pm 6 9 mph 1018.6mb 73f
2:00pm 5 7 mph 1018.6mb 74f
12:40pm 5 6 mph 1019mb 74f
12:30pm 2 6 mph 1019mb 74f
12:20pm 5 6 mph 1019mb 74f
12:10pm 3 6 mph 1019mb 73f
12:00pm 5 6 mph 1019mb 73f
11:40am 5 6 mph 1019mb 74f
11:30am 3 6 mph 1019mb 75f
11:20am 3 6 mph 1019mb 74f
11:10am 2 5 mph 1019mb 74f
11:00am 3 5 mph 1019.3mb 75f
10:40am  -  3 mph 1019.3mb 69f
10:30am 1 3 mph 1019.3mb 69f
10:20am 1 5 mph 1019.3mb 70f
10:10am  -  3 mph 1019.3mb 71f
10:00am 3
mph
1019.3mb 71f
9:40am 2 3 mph 1019.3mb 71f
9:30am 1 3 mph 1019.3mb 70f
9:20am  -  3 mph 1019.3mb 68f
9:10am  -  2 mph 1019.3mb 68f
9:00am 1 3 mph 1019.3mb 67f
8:40am  -  2 mph 1019.6mb 67f
8:30am  -  2 mph 1019.6mb 66f
8:20am 1 3 mph 1019.6mb 66f
8:10am  -  2 mph 1019.6mb 66f
8:00am  -  2 mph 1019.6mb 65f
7:40am 1 3 mph 1019.6mb 65f
7:30am  -  1 mph 1019.6mb 63f
7:20am  -  2 mph 1019.6mb 63f
7:10am  -  2 mph 1019.3mb 63f
7:00am 1 3 mph 1019.3mb 63f
6:40am 2 5 mph 1019.3mb 63f
6:30am 2 5 mph 1019mb 63f
6:20am 2 5 mph 1019mb 63f
6:10am 2 5 mph 1019mb 62f
6:00am  -  5 mph 1019mb 62f
5:40am 3 8 mph 1019mb 62f
5:30am 2 8 mph 1018.6mb 62f
5:20am 2 8 mph 1018.6mb 62f
5:10am 3 8 mph 1018.6mb 62f
5:00am 5 9 mph 1018.6mb 62f
4:40am 3 6 mph 1018.6mb 61f
4:30am 2 6 mph 1018.6mb 60f
4:20am 2 8 mph 1018.6mb 61f
4:10am 2 7 mph 1018.6mb 61f
4:00am 3 7 mph 1018.6mb 61f
3:40am 6 11 mph 1018.3mb 63f
3:30am 3 9 mph 1018.3mb 62f
3:20am 2 10 mph 1018.3mb 62f
3:10am 5 9 mph 1018.3mb 62f
3:00am 6 13 mph 1018.3mb 63f
2:40am 5 10 mph 1018.3mb 62f
2:30am 6 11 mph 1018.3mb 63f
2:20am 5 11 mph 1018.3mb 63f
2:10am 5 13 mph 1018.3mb 63f
2:00am 3 10 mph 1018.3mb 62f
1:40am 5 10 mph 1018.6mb 63f
1:30am 5 10 mph 1018.6mb 63f
1:20am 3 13 mph 1018.6mb 63f
1:10am 5 10 mph 1018.3mb 63f
1:00am 6 10 mph 1018.6mb 63f
12:50am 3 10 mph 1018.6mb 63f
12:40am 3 11 mph 1018.6mb 63f
12:30am 3 9 mph 1018.6mb 63f
12:20am 5 10 mph 1018.6mb 63f
12:10am 5 9 mph 1018.6mb 63f
12:00am 3 8 mph 1018.6mb 63f
Fri 07/29 11:50pm 5 10 mph 1019mb 63f
11:40pm 5 10 mph 1018.6mb 63f
11:30pm 5 10 mph 1018.6mb 63f
11:20pm 5 9 mph 1018.6mb 63f
11:10pm 3 9 mph 1018.6mb 63f
11:00pm 6 10 mph 1018.6mb 63f
10:50pm 5 10 mph 1018.6mb 63f
10:40pm 3 9 mph 1018.6mb 63f
10:30pm 5 9 mph 1018.6mb 64f
10:20pm 3 9 mph 1018.6mb 64f
10:10pm 6 9 mph 1018.6mb 64f
10:00pm 5 10 mph 1018.6mb 64f
9:50pm 2 8 mph 1018.6mb 64f
9:40pm 5 10 mph 1018.6mb 64f
9:30pm 3 9 mph 1018.6mb 64f
9:20pm 3 9 mph 1019mb 64f
9:10pm 5 9 mph 1019mb 64f
9:00pm 2 6 mph 1018.6mb 64f
8:50pm 1 5 mph 1018.6mb 63f
8:40pm  -  2 mph 1018.6mb 63f
8:30pm  -  3 mph 1018.6mb 64f
8:20pm  -  2 mph 1018.6mb 65f
8:10pm  -  2 mph 1018.6mb 66f
8:00pm 1 3 mph 1018.6mb 68f
7:50pm  -  5 mph 1018.6mb 69f
7:40pm  -  5 mph 1018.6mb 70f
7:30pm 2 7 mph 1018.6mb 71f
7:20pm 5 7 mph 1018.6mb 72f
7:10pm 3 9 mph 1018.6mb 72f
7:00pm 6 9 mph 1018.6mb 73f
6:50pm 5 9 mph 1018.6mb 73f
6:40pm 3 9 mph 1018.6mb 73f
6:30pm 3 8 mph 1018.6mb 74f
6:20pm 3 8 mph 1018.6mb 74f
6:10pm 3 7 mph 1018.6mb 74f
6:00pm 5 9 mph 1018.6mb 74f
5:50pm 5 8 mph 1018.6mb 74f
5:40pm 3 10 mph 1018.6mb 75f
5:30pm 2 7 mph 1018.6mb 74f
5:20pm 2 9 mph 1018.6mb 73f
5:10pm 7 10 mph 1018.6mb 72f
5:00pm 5 10 mph 1018.6mb 72f
4:50pm 5 8 mph 1019mb 72f
4:40pm 3 10 mph 1019mb 71f
4:30pm 5 14 mph 1019mb 71f
4:20pm 8 13 mph 1019mb 71f
4:10pm 8 14 mph 1019mb 71f
4:00pm 8 13 mph 1019mb 71f
3:50pm 7 11 mph 1019mb 71f
3:40pm 7 13 mph 1019mb 71f
3:30pm 9 16 mph 1019.3mb 71f
3:20pm 10 13 mph 1019.3mb 72f
3:10pm 6 11 mph 1019.3mb 70f
3:00pm 6 11 mph 1019.3mb 71f
2:50pm 6 13 mph 1019.3mb 71f
2:40pm 5 13 mph 1019.3mb 71f
2:30pm 6 14 mph 1019.3mb 71f
2:20pm 8 14 mph 1019.3mb 71f
2:10pm 7 11 mph 1019.3mb 71f
2:00pm 8 11 mph 1019.3mb 70f
1:40pm 3 10 mph 1019.3mb 70f
1:30pm 7 9 mph 1019.6mb 70f
1:20pm 5 8 mph 1019.6mb 68f
1:10pm 7 11 mph 1019.6mb 68f
1:00pm 5 11 mph 1019.6mb 68f
12:50pm 6 10 mph 1019.6mb 70f
12:40pm 3 11 mph 1019.3mb 69f
12:30pm 6 9 mph 1019.6mb 68f
12:20pm 6 9 mph 1019.3mb 71f
12:10pm 5 10 mph 1019.6mb 69f
12:00pm 5 10 mph 1019.6mb 70f
11:50am 7 10 mph 1019.3mb 67f
11:40am 6 8 mph 1019.3mb 70f
11:30am 6 10 mph 1019.6mb 68f
11:20am 5 8 mph 1019.6mb 70f
11:10am 6 10 mph 1020mb 70f
11:00am 5 7 mph 1020mb 69f
10:50am 5 9 mph 1020mb 69f
10:40am 3 8 mph 1020mb 70f
10:30am 5 7 mph 1020mb 70f
10:20am 5 8 mph 1020mb 70f
10:10am 5 7 mph 1020mb 70f
10:00am 5 8 mph 1020mb 70f
9:50am 5 7 mph 1020mb 70f
9:40am 2 6 mph 1020mb 70f
9:30am 5 7 mph 1020mb 69f
9:20am 6 7 mph 1020mb 70f
9:10am 5 6 mph 1020mb 69f
9:00am 2 6 mph 1020mb 68f
8:50am 5 7 mph 1020mb 68f
8:40am 6 7 mph 1020.3mb 68f
8:30am 5 6 mph 1020.3mb 67f
8:20am 5 6 mph 1020mb 67f
8:10am 3 6 mph 1020.3mb 67f
8:00am 3 6 mph 1020mb 66f
7:50am 1 3 mph 1020mb 67f
7:40am  -  3 mph 1020mb 65f
7:30am 2 3 mph 1020mb 65f
7:20am 2 5 mph 1020mb 63f
7:10am 2
mph
1020mb 63f
7:00am  -  2 mph 1020mb 62f
6:50am  -  3 mph 1020mb 60f
6:40am  -  3 mph 1020mb 58f
6:30am 1 2 mph 1020mb 57f
6:20am  -  1 mph 1020mb 55f
6:10am  -  2 mph 1020mb 53f
6:00am  -  1 mph 1020mb 53f
5:50am  -  1 mph 1019.6mb 53f
5:40am  -  3 mph 1019.6mb 53f
5:30am 1 2 mph 1019.6mb 53f
5:20am  -  1 mph 1019.6mb 53f
5:10am  -  3 mph 1019.6mb 53f
5:00am 2 3 mph 1019.6mb 53f
4:50am 1 3 mph 1019.6mb 53f
4:40am  -  3 mph 1019.6mb 54f
4:30am 1 3 mph 1019.6mb 54f
4:20am 2 5 mph 1019.6mb 54f
4:10am 3 5 mph 1019.6mb 54f
4:00am 3 6 mph 1019.6mb 54f
3:50am 3 5 mph 1019.6mb 54f
3:40am 3 5 mph 1019.3mb 54f
3:30am 3 5 mph 1019.6mb 54f
3:20am 3 5 mph 1019.6mb 54f
3:10am 3 6 mph 1019.6mb 54f
3:00am 3 5 mph 1019.6mb 55f
2:50am 3 5 mph 1019.6mb 55f
2:40am 3 5 mph 1019.6mb 55f
2:30am 3 5 mph 1019.6mb 55f
2:20am 3 5 mph 1019.6mb 55f
2:10am 2 3 mph 1019.3mb 55f
2:00am 3 5 mph 1019.3mb 55f
1:50am 3 5 mph 1019.3mb 55f
1:40am 3 6 mph 1019.3mb 55f
1:30am 3 6 mph 1019.3mb 54f
1:20am 3 5 mph 1019.3mb 54f
1:10am 2 5 mph 1019.3mb 53f
1:00am 2 3 mph 1019.3mb 53f
12:50am 2 3 mph 1019.6mb 53f
12:40am 2
mph
1019.6mb 53f
12:30am 2
mph
1019.6mb 53f
12:20am 2 3 mph 1019.6mb 53f
12:10am 2 3 mph 1019.6mb 53f
12:00am 2 3 mph 1019.6mb 53f
Thu 07/28 11:50pm 2 3 mph 1019.6mb 53f
11:40pm 2 3 mph 1019.6mb 53f
11:30pm 2 3 mph 1019.3mb 53f
11:20pm 2 3 mph 1019.3mb 53f
11:10pm 2 3 mph 1019.3mb 54f
11:00pm 2 3 mph 1019.3mb 54f
10:50pm 2 3 mph 1019.3mb 54f
10:40pm 2 3 mph 1019.3mb 54f
10:30pm 2 3 mph 1019.3mb 55f
10:20pm 2 3 mph 1019.3mb 55f
10:10pm 2 3 mph 1019.3mb 55f
10:00pm 1 3 mph 1019mb 55f
9:40pm  -  1 mph 1019mb 56f
9:30pm  -  1 mph 1019mb 57f
9:20pm  -  1 mph 1019mb 57f
9:10pm  -  3 mph 1019mb 58f
9:00pm 2 3 mph 1019mb 59f
8:50pm 2 3 mph 1019mb 59f
8:40pm  -  2 mph 1019mb 60f
8:30pm  -  1 mph 1018.6mb 62f
8:20pm 1 2 mph 1018.6mb 63f
8:10pm 3 7 mph 1019mb 64f
8:00pm 5 7 mph 1019mb 65f
7:50pm 3 8 mph 1019mb 65f
7:40pm 5 9 mph 1018.6mb 67f
7:30pm 3 7 mph 1018.6mb 67f
7:20pm 6 9 mph 1018.6mb 67f
7:10pm 6 11 mph 1018.6mb 67f
7:00pm 5 8 mph 1019mb 66f
6:50pm 5 9 mph 1019mb 66f
6:40pm 5 9 mph 1019mb 67f
6:30pm 7 9 mph 1018.6mb 68f
6:20pm 7 11 mph 1018.6mb 68f
6:10pm 7 10 mph 1019mb 68f
6:00pm 6 11 mph 1019mb 68f
5:50pm 7 14 mph 1019mb 68f
5:40pm 10 15 mph 1019mb 69f
5:30pm 8 11 mph 1019mb 70f
5:20pm 8 11 mph 1019mb 70f
5:10pm 8 13 mph 1019mb 71f
5:00pm 8 11 mph 1019.3mb 71f
4:50pm 8 11 mph 1019.3mb 71f
4:40pm 9 13 mph 1019.3mb 71f
4:30pm 10 14 mph 1019.3mb 71f
4:20pm 11 15 mph 1019.3mb 71f
4:10pm 10 15 mph 1019.3mb 71f
4:00pm 13 16 mph 1019.3mb 71f
3:50pm 13 17 mph 1019.3mb 70f
3:40pm 16 18 mph 1019.3mb 69f
3:30pm 16 20 mph 1019.3mb 69f
3:20pm 15 20 mph 1019.6mb 69f
3:10pm 15 20 mph 1019.3mb 69f
3:00pm 15 21 mph 1019.3mb 69f
2:50pm 15 22 mph 1019.3mb 69f
2:40pm 16 21 mph 1019.3mb 69f
2:30pm 15 22 mph 1019.3mb 69f
2:20pm 16 21 mph 1019.3mb 69f
2:10pm 15 20 mph 1019.3mb 69f
2:00pm 15 21 mph 1019.3mb 69f
1:50pm 15 21 mph 1019.3mb 70f
1:40pm 16 20 mph 1019.3mb 70f
1:30pm 15 18 mph 1019.3mb 71f
1:20pm 15 18 mph 1019.3mb 71f
1:10pm 16 21 mph 1019.3mb 71f
1:00pm 16 20 mph 1019.3mb 70f
12:50pm 16 20 mph 1019.3mb 70f
12:40pm 17 22 mph 1019.3mb 69f
12:30pm 15 20 mph 1019.3mb 69f
12:20pm 16 22 mph 1019mb 68f
12:10pm 16 24 mph 1019.3mb 69f
12:00pm 17 23 mph 1019.3mb 69f
11:50am 15 22 mph 1019mb 69f
11:40am 14 23 mph 1019mb 69f
11:30am 14 17 mph 1019mb 69f
11:20am 10 15 mph 1019mb 68f
11:10am 7 14 mph 1019mb 67f
11:00am 9 15 mph 1019mb 68f
10:40am 9 13 mph 1019mb 73f
10:30am 6 13 mph 1019mb 73f
10:20am 7 13 mph 1018.6mb 73f
10:10am 5 11 mph 1018.6mb 72f
10:00am 5 10 mph 1018.6mb 73f
9:50am 7 11 mph 1018.6mb 72f
9:40am 7 14 mph 1018.6mb 72f
9:30am 5 13 mph 1018.6mb 71f
9:20am 6 13 mph 1018.6mb 70f
9:10am 8 13 mph 1018.6mb 70f
9:00am 7 13 mph 1018.6mb 70f
8:50am 5 11 mph 1018.6mb 69f
8:40am 7 10 mph 1018.6mb 70f
8:30am 5 9 mph 1018.6mb 69f
8:20am 5 10 mph 1018.6mb 69f
8:10am 6 10 mph 1018.6mb 69f
8:00am 5 8 mph 1018.6mb 68f
7:50am 5 11 mph 1018.6mb 67f
7:40am 5 10 mph 1018.6mb 67f
7:30am 5 11 mph 1018.6mb 66f
7:20am 6 9 mph 1018.6mb 65f
7:10am 3 9 mph 1018.6mb 65f
7:00am 3 8 mph 1018.6mb 64f
6:50am 3 9 mph 1018.3mb 63f
6:40am 3 6 mph 1018.3mb 61f
6:30am 3 6 mph 1018.3mb 60f
6:20am 3 6 mph 1018.3mb 58f
6:10am 5 7 mph 1018.3mb 57f
6:00am 5 6 mph 1018.3mb 57f
5:50am 3 6 mph 1018.3mb 56f
5:40am 2 5 mph 1018.3mb 56f
5:30am 2 5 mph 1017.9mb 56f
5:20am 2 5 mph 1017.9mb 56f
5:10am 3 6 mph 1017.9mb 56f
5:00am 3 5 mph 1017.9mb 56f
4:50am 3 6 mph 1017.9mb 57f
4:40am 3 5 mph 1017.9mb 56f
4:30am 3 5 mph 1017.9mb 55f
4:20am  -  3 mph 1017.9mb 55f
4:10am 2 3 mph 1017.9mb 55f
4:00am 1 2 mph 1017.9mb 55f
3:50am 2 3 mph 1017.9mb 55f
3:40am 2
mph
1017.9mb 55f
3:30am 2
mph
1017.9mb 55f
3:20am 1 2 mph 1017.9mb 55f
3:10am 2
mph
1017.6mb 55f
3:00am 1 2 mph 1017.6mb 55f
2:50am 1 2 mph 1017.6mb 55f
2:40am 2 3 mph 1017.6mb 55f
2:30am 2
mph
1017.6mb 55f
1:40am 2
mph
1017.9mb 55f
1:30am 2 3 mph 1017.9mb 55f
1:20am 2 3 mph 1017.9mb 55f
1:10am 2
mph
1017.6mb 55f
1:00am 2
mph
1017.9mb 56f
12:50am 2 3 mph 1017.9mb 56f
12:40am 2 3 mph 1017.6mb 56f
12:30am 2
mph
1017.6mb 56f
12:20am 1 2 mph 1017.6mb 57f
12:10am 1 2 mph 1017.6mb 57f
12:00am 1 2 mph 1017.6mb 58f
Wed 07/27 11:50pm 2 3 mph 1017.3mb 58f
11:40pm 2
mph
1017.3mb 59f
11:30pm  -  2 mph 1017.3mb 59f
11:20pm  -  1 mph 1017.3mb 60f
11:10pm  -  1 mph 1017.3mb 61f
11:00pm  -  2 mph 1017.3mb 62f
10:50pm 1 2 mph 1017.3mb 62f
10:40pm  -  1 mph 1017.3mb 62f
10:30pm  -  1 mph 1017.3mb 62f
10:20pm  -  mph 1017.3mb 62f
10:10pm  -  mph 1017.3mb 63f
10:00pm  -  2 mph 1017.3mb 63f
9:50pm 1 3 mph 1017.3mb 63f
9:40pm 2 3 mph 1017.3mb 63f
9:30pm 2 3 mph 1017.3mb 63f
9:20pm 2
mph
1017.3mb 63f
9:10pm  -  2 mph 1017.3mb 63f
9:00pm  -  1 mph 1017.3mb 63f
8:50pm  -  1 mph 1016.9mb 63f
8:40pm  -  1 mph 1016.9mb 64f
8:30pm  -  mph 1016.9mb 64f
8:20pm  -  1 mph 1016.9mb 65f
8:10pm  -  2 mph 1016.9mb 65f
8:00pm 2 3 mph 1016.9mb 65f
7:50pm 2 5 mph 1016.9mb 65f
7:40pm 3 7 mph 1016.6mb 65f
7:30pm 3 6 mph 1016.6mb 65f
7:20pm 2 5 mph 1016.6mb 65f
7:10pm 3 6 mph 1016.6mb 66f
7:00pm 2 6 mph 1016.6mb 66f
6:50pm 3 7 mph 1016.6mb 66f
6:40pm 5 7 mph 1016.6mb 66f
6:30pm 2 3 mph 1016.9mb 65f
6:20pm 2 3 mph 1016.9mb 65f
6:10pm 3 7 mph 1016.9mb 65f
6:00pm 3 7 mph 1017.3mb 65f
5:50pm 3 6 mph 1017.3mb 65f
5:40pm 3 6 mph 1017.3mb 66f
5:30pm 5 10 mph 1017.6mb 67f
5:20pm 7 11 mph 1017.6mb 67f
5:10pm 9 11 mph 1017.6mb 67f
5:00pm 8 10 mph 1017.6mb 67f
4:50pm 7 13 mph 1017.6mb 67f
4:40pm 10 14 mph 1017.3mb 67f
4:30pm 10 15 mph 1017.3mb 67f
4:20pm 13 16 mph 1017.3mb 67f
4:10pm 10 16 mph 1017.3mb 66f
4:00pm 13 17 mph 1017.3mb 66f
3:50pm 13 15 mph 1017.3mb 67f
3:40pm 9 13 mph 1017.3mb 67f
3:30pm 8 13 mph 1016.9mb 68f
3:20pm 10 14 mph 1016.9mb 68f
3:10pm 10 14 mph 1016.9mb 68f
3:00pm 8 13 mph 1016.9mb 68f
2:40pm 5 15 mph 1017.3mb 67f
2:30pm 9 15 mph 1017.3mb 67f
2:20pm 8 15 mph 1017.3mb 67f
2:10pm 6 18 mph 1017.3mb 67f
2:00pm 8 16 mph 1017.3mb 67f
1:50pm 9 16 mph 1017.3mb 67f
1:40pm 9 20 mph 1017.3mb 67f
1:30pm 10 17 mph 1017.3mb 68f
1:20pm 10 17 mph 1017.3mb 68f
1:10pm 7 13 mph 1017.3mb 68f
1:00pm 6 15 mph 1017.3mb 68f
12:50pm 7 14 mph 1017.3mb 68f
12:40pm 7 14 mph 1017.3mb 68f
12:30pm 10 15 mph 1017.3mb 68f
12:20pm 10 13 mph 1017.3mb 69f
12:10pm 8 13 mph 1017.3mb 69f
12:00pm 8 11 mph 1017.6mb 69f
11:50am 9 11 mph 1017.6mb 69f
11:40am 6 11 mph 1017.6mb 68f
11:30am 7 9 mph 1017.6mb 67f
11:20am 6 11 mph 1017.6mb 67f
11:10am 3 11 mph 1017.6mb 67f
11:00am 5 11 mph 1017.3mb 67f
10:50am 5 13 mph 1017.3mb 66f
10:40am 10 14 mph 1017.3mb 67f
10:30am 9 15 mph 1017.3mb 67f
10:20am 9 15 mph 1017.3mb 67f
10:10am 11 17 mph 1016.9mb 66f
10:00am 11 17 mph 1016.9mb 66f
9:50am 10 17 mph 1016.9mb 67f
9:40am 8 16 mph 1016.6mb 67f
9:30am 11 16 mph 1016.9mb 67f
9:20am 11 15 mph 1016.9mb 67f
9:10am 10 14 mph 1016.6mb 67f
9:00am 8 13 mph 1016.6mb 67f
8:50am 8 13 mph 1016.6mb 67f
8:40am 6 9 mph 1016.6mb 67f
8:30am 6 11 mph 1016.6mb 66f
8:20am 5 10 mph 1016.3mb 66f
8:10am 6 9 mph 1016.3mb 65f
8:00am 6 9 mph 1016.3mb 65f
7:50am 5 8 mph 1016.3mb 65f
7:40am 3 6 mph 1016.3mb 65f
7:30am 2 5 mph 1016.3mb 65f
7:20am 2 3 mph 1015.9mb 65f
7:10am 1 3 mph 1015.9mb 64f
7:00am  -  1 mph 1015.9mb 64f
6:50am  -  5 mph 1015.6mb 65f
6:40am 3 6 mph 1015.6mb 64f
6:30am 3 5 mph 1015.6mb 64f
6:20am 1 5 mph 1015.6mb 64f